Regional Weather Roundup
Issued by NWS San Diego, CA

Home | Current Version | Previous Version | Text Only | Print | Product List | Glossary On
Versions: 1 2 3 4 5 6 7 8 9 10 11 12 13 14 15 16 17 18 19 20 21 22 23 24 25 26 27 28 29 30 31 32 33 34 35 36 37 38 39 40 41 42 43 44 45 46 47 48 49 50
000
ASUS46 KSGX 010511
RWRSGX

SAN DIEGO HOURLY WEATHER ROUNDUP
NATIONAL WEATHER SERVICE SAN DIEGO CA
1000 PM PDT FRI SEP 30 2016

NOTE: "FAIR" INDICATES FEW OR NO CLOUDS BELOW 12,000 FEET WITH NO
SIGNIFICANT WEATHER AND/OR OBSTRUCTIONS TO VISIBILITY.

CAZ042-043-060-061-PZZ750-775-010600-

GREATER SAN DIEGO AREA

CITY           SKY/WX    TMP DP  RH WIND       PRES   REMARKS
LINDBERGH FLD  PTCLDY    72  66  81 NW3       29.98S
NATIONAL CITY    N/A     73  67  81 CALM      29.99R
CHULA VISTA      N/A     70  67  89 CALM      29.90R
IMPERIAL BEACH CLEAR     67  64  90 CALM      29.98R
BROWN FIELD    CLEAR     68  61  78 CALM      29.99R
MIRAMAR MCAS   CLEAR     71  60  68 W3        29.98R
MONTGOMERY FLD CLEAR     73  59  61 CALM      29.98S

$$

NORTH SAN DIEGO COUNTY

CITY           SKY/WX    TMP DP  RH WIND       PRES   REMARKS
CAMP PENDLETON CLEAR     67  64  90 CALM      29.97R
OCEANSIDE AP   CLEAR     68  64  87 CALM      29.96S
OCEANSIDE HBR    N/A     68  66  94 CALM      30.00R
VISTA            N/A     68  61  77 CALM      29.94S
CARLSBAD       CLEAR     70  67  90 S3        29.97R
DEL MAR          N/A     68  66  92 CALM      30.00R
LA JOLLA SCRIP   N/A     69  68  98 CALM      29.97R
FALLBROOK        N/A     68  65  93 CALM      29.95S
ESCONDIDO        N/A     73  59  60 CALM      29.98S
SAN MARCOS       N/A     71  60  67 CALM      30.00S
POWAY            N/A     70  61  73 CALM      29.97R

$$

EAST SAN DIEGO COUNTY

CITY           SKY/WX    TMP DP  RH WIND       PRES   REMARKS
RAMONA         CLEAR     65  53  65 CALM      30.01S
SANTEE LAKES     N/A     70  58  65 CALM      29.96R
LA MESA          N/A     71  60  67 CALM      29.89R
JAMUL            N/A     69  61  76 CALM      29.96R
DESCANSO N       N/A     60  50  69 NE3       29.92R
MT. LAGUNA OBS   N/A     59  47  64 CALM      29.79S
CAMPO            N/A     63  51  65 CALM      30.04R

$$

ORANGE COUNTY AND THE LOS ANGELES BASIN

CITY           SKY/WX    TMP DP  RH WIND       PRES   REMARKS
JOHN WAYNE AP  CLEAR     71  63  75 S3        29.96R
LAGUNA BEACH     N/A     69  60  74 CALM      29.91R
LAKE FOREST FR   N/A     72  53  51 CALM      29.83S
HUNTINGTON BCH   N/A     68  66  92 W3        29.97R
LOS ALAMITOS   CLEAR     70  59  68 S5        29.95R
FULLERTON      CLEAR     74  52  46 CALM      29.95R
LONG BEACH     CLEAR     73  54  51 SE3       29.95R
L.A. AP        CLEAR     70  60  70 SW7       29.95R
L.A. DOWNTOWN  CLEAR     71  58  63 CALM      29.95R

$$

THE INLAND EMPIRE

CITY           SKY/WX    TMP DP  RH WIND       PRES   REMARKS
CORONA         CLEAR     76  51  41 VRB5      29.97R
CHINO          CLEAR     74  53  48 CALM      29.98R
ONTARIO        CLEAR     74  48  39 W5        29.98R
SAN BERNARDINO FAIR      79  48  34 CALM      30.00R
RIVERSIDE AP   CLEAR     77  50  38 N5        29.98R
MORENO VALLEY    N/A     73  53  48 CALM      28.12R
MARCH ARB      CLEAR     72  48  42 NW2       30.00S
HORSETHIEF CYN   N/A     73  44  35 W1        29.98R
PERRIS           N/A     76  53  45 NE3       30.01S
HEMET EAST       N/A     72  47  41 CALM      30.02R
FRENCH VALLEY  FAIR      72  54  53 CALM      30.01S
TEMECULA         N/A     73  59  60 E2        30.04R

$$

SAN BERNARDINO AND RIVERSIDE COUNTY MOUNTAINS

CITY           SKY/WX    TMP DP  RH WIND       PRES   REMARKS
BIG BEAR AP    CLEAR     50  41  71 CALM      30.28R
PINE COVE        N/A     58  42  54 CALM      29.99R

$$

SOUTHERN DESERT INCLUDING THE COACHELLA VALLEY

CITY           SKY/WX    TMP DP  RH WIND       PRES   REMARKS
PALM SPRINGS   CLEAR     90  50  25 NW12      29.90R
PALM DESERT      N/A     88  54  30 CALM      26.84F
THERMAL        CLEAR     84  55  36 NW7       29.83R
BLYTHE         CLEAR     87  52  29 CALM      29.87R
IMPERIAL AP    CLEAR     88  56  33 W10       29.85R
EL CENTRO NAS  PTCLDY    86  51  29 W9        29.87R
YUMA AZ        PTCLDY    85  58  39 S10       29.88
MEXICALI       CLEAR     86  52  30 CALM      29.87R

$$

UPPER DESERT

CITY           SKY/WX    TMP DP  RH WIND       PRES   REMARKS
VICTORVILLE AP CLEAR     72  43  35 SW6       30.06R
HESPERIA         N/A     71  47  41 CALM      30.04R
PALMDALE       CLEAR     74  46  36 SW14      30.04R
LANCASTER      CLEAR     72  44  36 W10       30.03R
EDWARDS AFB    CLEAR     72  43  35 SW9       30.00R
DAGGETT        MOCLDY    80  46  30 W12       29.98R
29 PALMS N     CLEAR     80  48  32 SW15      30.03R
NEEDLES          N/A    N/A N/A N/A MISG      29.89R

$$

REGIONAL REPORTS

CITY           SKY/WX    TMP DP  RH WIND       PRES   REMARKS
SANTA BARBARA  CLEAR     64  62  93 CALM      29.94R
SANDBERG       CLEAR     68  40  35 N10       30.16S
LAS VEGAS NV   PTCLDY    83  40  21 S5        29.95R
PHOENIX AZ     PTCLDY    84  56  38 E6        29.94R
TIJUANA        CLEAR     70  57  64 W3        30.01R
ENSENADA NW      N/A     69  32  25 CALM      29.96R

$$

OFFSHORE ISLANDS

CITY           SKY/WX    TMP DP  RH WIND       PRES   REMARKS
CATALINA ARPT  CLEAR     74  33  22 W10       30.02S
SAN NICOLAS IS CLEAR     64  59  83 W21       29.98R

$$

MARINE AND OFFSHORE BUOY REPORTS

STATION/POSITION SKY/WX   TEMP    WIND        PRES    SWELL
                          AIR SEA DIR/SP/G            HT/PER/DIR
                          (F)     (DEG/KT/KT) (MB)    (FT/S/D)
TANNER BANKS               65 66  310/ 17/ 21 1015.2R   5/220/16
S CLEMENTE BASIN           67 69  290/  8/ 10 1014.9R   5/200/17
SO. S. ROSA ISLA           62 63  310/ 23/ 27 1015.4R   3/150/15
W. S. BARBARA CH           60 60  320/ 23/ 29 1015.6R   3/210/15
M. S. BARBARA CH                  260/ 12/ 14 1014.0R
S. MONICA BASIN            70 71  320/ 10/ 12 1013.5R
TORREY PINES OTR              71                N/A     3/200/15
POINT LOMA SOUTH              71                N/A     3/190/14

$$




USA.gov is the U.S. government's official web portal to all federal, state and local government web resources and services.